View from above orbital plane
|
View from above satellite
|
Ground track
|
The orbit data is extracted from the following two-line orbital elements,
1 39136U 13015G 21023.55201417 .00001234 00000-0 69242-4 0 9992
2 39136 64.8745 316.1048 0028912 262.8826 96.9013 15.18227627428516
Epoch (UTC): | 23 January 2021 13:14:54 |
Eccentricity: | 0.0028912 |
inclination: | 64.8745° |
perigee height: | 491 km |
apogee height: | 531 km |
right ascension of ascending node: | 316.1048° |
argument of perigee: | 262.8826° |
revolutions per day: | 15.18227627 |
mean anomaly at epoch: | 96.9013° |
orbit number at epoch: | 42851 |
The dashed part of the orbit path shows where the satellite is in the earth's shadow,
|
|